| time (UTC) | temp F | wind direction | speed knots | gust knots | rain 1hr in | rain 24hr in | rain mn in | humidity % | barometer mb |
| 20260901231516 | 68 | 203 | 0.9 | 3.5 | 0.00 | 0.00 | 0.00 | 50 | 1014.8 |
| 20260901230017 | 68 | 113 | 0.9 | 5.2 | 0.00 | 0.00 | 0.00 | 50 | 1014.9 |
| 20260901224516 | 68 | 225 | 0.9 | 4.3 | 0.00 | 0.00 | 0.00 | 50 | 1015.0 |
| 20260901223017 | 68 | 113 | 1.7 | 7.8 | 0.00 | 0.00 | 0.00 | 51 | 1015.1 |
| 20260901221516 | 68 | 113 | 0.9 | 4.3 | 0.00 | 0.00 | 0.00 | 52 | 1015.2 |
| 20260901220016 | 68 | 180 | 0.9 | 6.1 | 0.00 | 0.00 | 0.00 | 52 | 1015.4 |
| 20260901214516 | 67 | 113 | 1.7 | 7.0 | 0.00 | 0.00 | 0.00 | 53 | 1015.4 |
| 20260901213016 | 68 | 135 | 0.9 | 6.1 | 0.00 | 0.00 | 0.00 | 54 | 1015.5 |
| 20260901211516 | 68 | 135 | 0.9 | 5.2 | 0.00 | 0.00 | 0.00 | 55 | 1015.7 |
| 20260901210016 | 68 | 180 | 0.9 | 5.2 | 0.00 | 0.00 | 0.00 | 54 | 1015.7 |
| 20260901204516 | 66 | 270 | 0.9 | 6.1 | 0.00 | 0.00 | 0.00 | 58 | 1015.6 |
| 20260901203016 | 66 | 135 | 1.7 | 5.2 | 0.00 | 0.00 | 0.00 | 58 | 1015.7 |
| 20260901201516 | 66 | 113 | 1.7 | 8.7 | 0.00 | 0.00 | 0.00 | 58 | 1015.8 |
| 20260901200016 | 66 | 135 | 1.7 | 5.2 | 0.00 | 0.00 | 0.00 | 59 | 1015.7 |
| 20260901194516 | 66 | 113 | 1.7 | 6.1 | 0.00 | 0.00 | 0.00 | 58 | 1015.7 |
| 20260901193016 | 65 | 135 | 1.7 | 6.1 | 0.00 | 0.00 | 0.00 | 59 | 1015.7 |
| 20260901191556 | 65 | 113 | 1.7 | 6.1 | 0.00 | 0.00 | 0.00 | 60 | 1016.1 |
| 20260901190016 | 65 | 113 | 1.7 | 6.1 | 0.00 | 0.00 | 0.00 | 59 | 1016.0 |
| 20260901184516 | 63 | 180 | 0.9 | 5.2 | 0.00 | 0.00 | 0.00 | 62 | 1015.9 |
| 20260901183016 | 63 | 90 | 1.7 | 5.2 | 0.00 | 0.00 | 0.00 | 64 | 1015.9 |
| 20260901181516 | 64 | 113 | 1.7 | 4.3 | 0.00 | 0.00 | 0.00 | 61 | 1015.7 |
| 20260901180016 | 63 | 113 | 2.6 | 5.2 | 0.00 | 0.00 | 0.00 | 64 | 1015.6 |
| 20260901174516 | 61 | 113 | 2.6 | 6.1 | 0.00 | 0.00 | 0.00 | 69 | 1015.5 |
| 20260901173016 | 60 | 113 | 1.7 | 5.2 | 0.00 | 0.00 | 0.00 | 69 | 1015.5 |
| 20260901171516 | 60 | 135 | 1.7 | 6.1 | 0.00 | 0.00 | 0.00 | 70 | 1015.4 |
| 20260901170016 | 59 | 113 | 2.6 | 8.7 | 0.00 | 0.00 | 0.00 | 71 | 1015.2 |
| 20260901164516 | 61 | 113 | 2.6 | 5.2 | 0.00 | 0.00 | 0.00 | 68 | 1015.2 |
| 20260901163016 | 60 | 113 | 2.6 | 5.2 | 0.00 | 0.00 | 0.00 | 71 | 1014.8 |
| 20260901161516 | 58 | 113 | 1.7 | 6.1 | 0.00 | 0.00 | 0.00 | 75 | 1014.7 |
| 20260901160036 | 58 | 113 | 2.6 | 5.2 | 0.00 | 0.00 | 0.00 | 76 | 1014.5 |
| 20260901154536 | 57 | 113 | 2.6 | 5.2 | 0.00 | 0.00 | 0.00 | 79 | 1014.4 |
| 20260901153036 | 56 | 113 | 1.7 | 7.8 | 0.00 | 0.00 | 0.00 | 82 | 1014.1 |
| 20260901151516 | 55 | 113 | 1.7 | 3.5 | 0.00 | 0.00 | 0.00 | 84 | 1014.1 |
| 20260901150016 | 55 | 113 | 2.6 | 5.2 | 0.00 | 0.00 | 0.00 | 85 | 1013.7 |
| 20260901144516 | 54 | 113 | 2.6 | 5.2 | 0.00 | 0.00 | 0.00 | 88 | 1013.7 |
| 20260901143016 | 52 | 90 | 2.6 | 4.3 | 0.00 | 0.00 | 0.00 | 91 | 1013.4 |
| 20260901141516 | 51 | 90 | 2.6 | 5.2 | 0.00 | 0.00 | 0.00 | 91 | 1013.1 |
| 20260901140036 | 51 | 90 | 1.7 | 6.1 | 0.00 | 0.00 | 0.00 | 92 | 1013.0 |
| 20260901134516 | 51 | 90 | 2.6 | 8.7 | 0.00 | 0.00 | 0.00 | 92 | 1013.0 |
| 20260901133016 | 51 | 90 | 3.5 | 8.7 | 0.00 | 0.00 | 0.00 | 92 | 1012.9 |
| 20260901131516 | 51 | 90 | 2.6 | 11.3 | 0.00 | 0.00 | 0.00 | 92 | 1013.1 |
| 20260901130016 | 51 | 90 | 2.6 | 6.1 | 0.00 | 0.00 | 0.00 | 92 | 1013.1 |
| 20260901124516 | 51 | 113 | 1.7 | 7.8 | 0.00 | 0.00 | 0.00 | 92 | 1013.2 |
| 20260901123015 | 51 | 113 | 1.7 | 7.8 | 0.00 | 0.00 | 0.00 | 91 | 1013.2 |
| 20260901121556 | 51 | 113 | 1.7 | 3.5 | 0.00 | 0.00 | 0.00 | 91 | 1012.8 |
| 20260901120016 | 51 | 158 | 0.9 | 4.3 | 0.00 | 0.00 | 0.00 | 90 | 1012.6 |
| 20260901114536 | 51 | 158 | 1.7 | 4.3 | 0.00 | 0.00 | 0.00 | 89 | 1012.6 |
| 20260901113016 | 51 | 180 | 0.9 | 4.3 | 0.00 | 0.00 | 0.00 | 88 | 1012.3 |
| 20260901111515 | 52 | 0.0 | 1.7 | 0.00 | 0.00 | 0.00 | 87 | 1012.2 | |
| 20260901110016 | 53 | 0.0 | 2.6 | 0.00 | 0.00 | 0.00 | 86 | 1012.1 | |
| 20260901104535 | 53 | 90 | 0.9 | 2.6 | 0.00 | 0.00 | 0.00 | 86 | 1012.3 |
| 20260901103035 | 54 | 68 | 2.6 | 6.1 | 0.00 | 0.00 | 0.00 | 86 | 1011.8 |
| 20260901101516 | 53 | 90 | 2.6 | 3.5 | 0.00 | 0.00 | 0.00 | 86 | 1012.0 |
| 20260901100036 | 53 | 90 | 1.7 | 4.3 | 0.00 | 0.00 | 0.00 | 85 | 1012.2 |
| 20260901094516 | 54 | 0.0 | 1.7 | 0.00 | 0.00 | 0.00 | 85 | 1012.3 | |
| 20260901093015 | 54 | 113 | 0.9 | 1.7 | 0.00 | 0.00 | 0.00 | 84 | 1012.4 |
| 20260901091516 | 54 | 113 | 0.9 | 2.6 | 0.00 | 0.00 | 0.00 | 84 | 1012.5 |
| 20260901090016 | 54 | 113 | 0.9 | 2.6 | 0.00 | 0.00 | 0.00 | 83 | 1012.4 |
| 20260901084515 | 54 | 90 | 0.9 | 2.6 | 0.00 | 0.00 | 0.00 | 82 | 1012.6 |
| 20260901083016 | 55 | 113 | 1.7 | 3.5 | 0.00 | 0.00 | 0.00 | 81 | 1012.6 |
| 20260901081515 | 55 | 113 | 1.7 | 3.5 | 0.00 | 0.00 | 0.00 | 81 | 1012.7 |
| 20260901080016 | 55 | 113 | 1.7 | 4.3 | 0.00 | 0.00 | 0.00 | 80 | 1012.7 |
| 20260901074516 | 56 | 135 | 1.7 | 5.2 | 0.00 | 0.00 | 0.00 | 79 | 1012.9 |
| 20260901073016 | 56 | 135 | 0.9 | 5.2 | 0.00 | 0.00 | 0.00 | 79 | 1012.9 |
| 20260901071536 | 57 | 135 | 0.9 | 6.1 | 0.00 | 0.00 | 0.00 | 79 | 1012.8 |
| 20260901070015 | 57 | 113 | 1.7 | 4.3 | 0.00 | 0.00 | 0.00 | 79 | 1012.7 |
| 20260901064517 | 58 | 113 | 1.7 | 3.5 | 0.00 | 0.00 | 0.00 | 78 | 1012.8 |
| 20260901063016 | 58 | 113 | 0.9 | 4.3 | 0.00 | 0.00 | 0.00 | 77 | 1012.8 |
| 20260901061517 | 59 | 113 | 0.9 | 3.5 | 0.00 | 0.00 | 0.00 | 75 | 1012.7 |
| 20260901060016 | 59 | 113 | 0.9 | 2.6 | 0.00 | 0.00 | 0.00 | 74 | 1012.7 |
| 20260901054517 | 60 | 113 | 1.7 | 2.6 | 0.00 | 0.00 | 0.00 | 73 | 1012.7 |
| 20260901053036 | 60 | 113 | 0.9 | 2.6 | 0.00 | 0.00 | 0.00 | 72 | 1012.6 |
| 20260901051517 | 61 | 113 | 0.9 | 2.6 | 0.00 | 0.00 | 0.00 | 71 | 1012.4 |
| 20260901050036 | 61 | 113 | 0.9 | 2.6 | 0.00 | 0.00 | 0.00 | 71 | 1012.5 |
| 20260901044536 | 61 | 113 | 0.9 | 3.5 | 0.00 | 0.00 | 0.00 | 70 | 1012.2 |
| 20260901043036 | 62 | 113 | 0.9 | 2.6 | 0.00 | 0.00 | 0.00 | 70 | 1012.3 |
| 20260901041517 | 62 | 0.0 | 2.6 | 0.00 | 0.00 | 0.00 | 68 | 1012.0 | |
| 20260901040036 | 63 | 0.0 | 1.7 | 0.00 | 0.00 | 0.00 | 67 | 1012.0 | |
| 20260901034517 | 64 | 0.0 | 1.7 | 0.00 | 0.00 | 0.00 | 66 | 1011.7 | |
| 20260901033016 | 65 | 0.0 | 0.0 | 0.00 | 0.00 | 0.00 | 63 | 1011.7 | |
| 20260901031516 | 66 | 0.0 | 0.0 | 0.00 | 0.00 | 0.00 | 61 | 1011.5 | |
| 20260901030016 | 67 | 0.0 | 0.9 | 0.00 | 0.00 | 0.00 | 59 | 1011.4 | |
| 20260901024516 | 69 | 0.0 | 0.9 | 0.00 | 0.00 | 0.00 | 55 | 1011.2 | |
| 20260901023017 | 70 | 0.0 | 1.7 | 0.00 | 0.00 | 0.00 | 52 | 1011.2 | |
| 20260901021516 | 71 | 0.0 | 1.7 | 0.00 | 0.00 | 0.00 | 49 | 1011.2 | |
| 20260901020016 | 72 | 0.0 | 0.9 | 0.00 | 0.00 | 0.00 | 46 | 1011.1 | |
| 20260901014516 | 73 | 0.0 | 1.7 | 0.00 | 0.00 | 0.00 | 43 | 1011.1 | |
| 20260901013016 | 74 | 0.0 | 1.7 | 0.00 | 0.00 | 0.00 | 41 | 1011.4 | |
| 20260901011516 | 74 | 0.0 | 2.6 | 0.00 | 0.00 | 0.00 | 39 | 1011.4 | |
| 20260901010036 | 75 | 180 | 0.9 | 4.3 | 0.00 | 0.00 | 0.00 | 36 | 1011.3 |
| 20260901004516 | 75 | 158 | 0.9 | 3.5 | 0.00 | 0.00 | 0.00 | 38 | 1011.5 |
| 20260901003016 | 75 | 158 | 0.9 | 4.3 | 0.00 | 0.00 | 0.00 | 39 | 1011.7 |
| 20260901001516 | 76 | 0.0 | 2.6 | 0.00 | 0.00 | 0.00 | 40 | 1011.8 | |
| 20260901000016 | 76 | 135 | 0.9 | 2.6 | 0.00 | 0.00 | 0.00 | 39 | 1011.7 |
| 20260831234516 | 76 | 113 | 0.9 | 3.5 | 0.00 | 0.00 | 0.00 | 38 | 1012.0 |
| 20260831233016 | 77 | 113 | 0.9 | 3.5 | 0.00 | 0.00 | 0.00 | 37 | 1012.1 |